Location: Buckau
(52.1065°N, 11.6383°E)
Time: 18:33:42
(UTC+00:00)

Daily predictions for brighter satellites

Satellite Brightness Start Highest point End
(mag) Time Altitude Azimuth Time Altitude Azimuth Time Altitude Azimuth
Cosmos 2228 4.2 18:21:03 10° SE 18:24:28 23° E 18:27:56 10° NE
Cosmos 1818 4.4 18:21:58 10° S 18:26:30 28° ESE 18:31:05 10° ENE
Cosmos 2263 4.2 18:21:38 10° NNW 18:27:18 85° ENE 18:32:54 10° SSE
STARLINK-1269 3.7 18:24:07 10° W 18:28:16 80° N 18:32:27 10° E
ATLAS CENTAUR R/B 3.8 18:27:27 10° NNW 18:29:45 14° N 18:31:59 10° NE
Meteor 2-15 Rocket 4.4 18:26:48 10° S 18:32:49 71° E 18:38:53 10° NNE
STARLINK-1200 3.7 18:29:06 10° W 18:33:15 79° N 18:37:26 10° E
Cosmos 1470 3.0 18:29:23 10° SSW 18:33:16 78° W 18:37:13 10° N
ERBS 3.6 18:30:19 10° WNW 18:33:28 34° N 18:36:36 10° ENE
Cosmos 1943 3.6 18:29:52 10° S 18:35:07 41° ESE 18:40:25 10° NE
SL-08 RB Rocket 3.9 18:30:44 10° SSE 18:35:11 55° ENE 18:39:43 10° N
Aureole 2 Rocket 3.6 18:32:35 10° NW 18:35:57 44° WSW 18:39:13 10° S
ARGOS Delta rocket 4.4 18:31:08 10° S 18:36:26 77° WSW 18:41:58 10° NNW
STARLINK-1192 3.7 18:34:04 10° W 18:38:14 78° N 18:42:24 10° E
BREEZE-M DEB (TANK) 3.2 18:33:43 10° SW 18:38:47 32° SSE 18:41:06 10° E
Cosmos 1461 3.7 18:34:45 10° NW 18:39:03 44° NE 18:43:27 10° ESE
CZ-2C R/B 2.9 18:34:53 10° SSE 18:39:47 86° ENE 18:44:34 10° NNW
CZ-4C R/B 4.0 18:37:15 10° WNW 18:42:39 31° N 18:48:58 10° ENE
STARLINK-1244 3.7 18:39:04 10° W 18:43:13 78° N 18:47:23 10° E
STARLINK-1138 3.7 18:44:02 10° W 18:48:11 78° N 18:52:21 10° E
H-2A R/B 2.3 18:44:24 10° S 18:49:35 74° WSW 18:54:42 10° NNW
NOSS 3-4 (A) 3.9 18:44:41 10° NW 18:51:32 80° NE 18:58:54 11° SE
NOSS 3-4 (C) 3.9 18:44:47 10° NW 18:51:38 80° NE 18:58:59 11° SE
ADEOS Rocket 4.1 18:46:00 10° N 18:52:25 52° WNW 18:58:11 10° SW
STARLINK-1143 3.7 18:49:00 10° W 18:53:09 77° N 18:57:13 11° E
Cosmos 1656 Rocket 3.7 18:47:33 10° NNW 18:53:17 88° ENE 18:58:53 10° SSE
CZ-2C R/B 3.3 18:51:48 10° NNE 18:56:25 32° E 19:01:02 10° SSE
STARLINK-1241 3.7 18:54:01 10° W 18:58:11 77° N 19:02:02 12° E
SL-16 R/B 3.5 18:52:57 10° WSW 18:58:23 45° NW 19:03:50 10° NNE
STARLINK-1228 2.6 18:56:03 10° WNW 18:58:59 88° NNE 19:01:05 17° ESE
Resurs 1-3 3.7 18:56:17 10° SSE 19:00:36 60° ENE 19:04:57 10° N
NOSS 3-3 (A) 3.9 18:57:03 10° SSW 19:02:59 73° SE 19:09:45 10° NE
NOSS 3-3 (C) 3.9 18:57:10 10° SSW 19:03:05 72° SE 19:09:50 10° NE
STARLINK-1239 3.7 18:59:00 10° W 19:03:09 77° N 19:06:49 13° E
MetOp-A 4.1 18:57:58 10° SSE 19:03:19 75° ENE 19:08:41 10° NNW
Cosmos 1726 2.0 18:59:56 10° S 19:03:40 82° E 19:07:25 10° NNE
Cosmos 2251 Rocket 3.7 18:58:26 10° SSW 19:03:49 85° WNW 19:09:15 10° NNE
Cosmos 2184 Rocket 4.1 18:58:41 10° N 19:05:02 85° W 19:11:16 10° S
ARGOS 3.6 19:00:03 10° S 19:05:24 66° WSW 19:10:47 10° NNW
STARLINK-1240 3.7 19:04:00 10° W 19:08:09 77° N 19:11:37 15° E
SJ-6B 3.4 19:04:46 10° S 19:08:51 63° WSW 19:12:59 10° NNW
STARLINK-1233 2.8 19:05:58 10° WNW 19:09:08 85° NNE 19:11:11 20° E
STARLINK-1212 2.8 19:06:26 10° WNW 19:09:35 85° NNE 19:11:36 20° E
STARLINK-1105 2.8 19:06:52 10° WNW 19:10:01 85° N 19:12:03 20° E
STARLINK-1206 2.8 19:07:22 10° WNW 19:10:30 85° N 19:12:28 21° E
STARLINK-1247 2.8 19:07:49 10° WNW 19:10:58 85° NNE 19:12:54 21° E
STARLINK-1227 2.8 19:08:14 10° WNW 19:11:23 86° NNE 19:13:20 21° E
STARLINK-1218 2.8 19:08:44 10° WNW 19:11:52 86° NNE 19:13:47 21° E
Cosmos 967 Rocket 4.5 19:05:38 10° SSW 19:12:05 78° SE 19:18:36 10° NE
BREEZE M DEB (TANK) 4.5 19:09:19 10° SSE 19:12:10 18° ESE 19:17:23 10° ENE
STARLINK-1226 2.8 19:09:09 10° WNW 19:12:18 86° NNE 19:14:12 22° E
Meteor 2-10 4.2 19:07:10 10° S 19:12:39 89° ESE 19:18:22 10° NNE
STARLINK-1254 2.8 19:09:35 10° WNW 19:12:44 86° N 19:14:38 22° E
STARLINK-1216 3.7 19:08:59 10° W 19:13:09 78° N 19:16:24 16° E
STARLINK-1215 2.8 19:10:05 10° WNW 19:13:13 87° NNE 19:15:04 22° E
STARLINK-67 2.5 19:11:02 10° W 19:13:34 62° SSW 19:14:43 28° SE
STARLINK-1231 2.8 19:10:32 10° WNW 19:13:40 87° NNE 19:15:30 22° E
DMSP B5D2-2 4.2 19:08:40 10° NNE 19:13:46 50° E 19:18:50 10° S
USA 186 3.5 19:10:50 10° SSW 19:13:56 34° W 19:16:54 10° NNW
STARLINK-1232 2.8 19:11:26 10° WNW 19:14:34 87° NNE 19:16:22 23° E
STARLINK-1217 2.8 19:11:52 10° WNW 19:15:01 88° N 19:16:48 23° ESE
STARLINK-1208 2.8 19:12:17 10° WNW 19:15:26 88° NNE 19:17:15 23° ESE
STARLINK-1229 2.8 19:12:46 10° WNW 19:15:53 88° N 19:17:39 24° ESE
STARLINK-1271 2.8 19:13:14 10° WNW 19:16:22 88° NNE 19:18:07 24° ESE
STARLINK-1234 2.7 19:13:20 10° WNW 19:16:23 82° SSW 19:17:59 25° ESE
Cosmos 1980 Rocket 4.3 19:13:18 10° NNW 19:16:32 15° NNE 19:19:46 10° ENE
STARLINK-1270 2.8 19:13:41 10° WNW 19:16:49 88° N 19:18:33 24° ESE
STARLINK-1154 2.8 19:14:07 10° WNW 19:17:15 89° N 19:18:57 24° ESE
STARLINK-1237 3.7 19:13:57 10° W 19:18:07 78° N 19:21:10 18° E
STARLINK-1197 2.8 19:15:01 10° WNW 19:18:10 89° NNE 19:19:50 25° ESE
Terra 3.7 19:16:09 12° E 19:18:18 16° NE 19:21:03 10° NNE
STARLINK-1189 2.8 19:15:29 10° WNW 19:18:37 89° NNW 19:20:16 25° ESE
STARLINK-1198 2.8 19:15:55 10° WNW 19:19:03 89° NW 19:20:42 26° ESE
STARLINK-1209 2.7 19:16:13 10° WNW 19:19:13 78° SSW 19:20:38 28° ESE
STARLINK-1188 2.8 19:16:23 10° WNW 19:19:30 90° W 19:21:08 26° ESE
STARLINK-1235 2.8 19:17:01 10° WNW 19:20:11 82° SSW 19:21:46 27° ESE
STARLINK-1187 2.8 19:17:26 10° WNW 19:20:37 86° SSW 19:22:12 27° ESE
Cosmos 1603 3.8 19:15:10 10° SSW 19:20:48 83° WNW 19:26:28 10° NNE
STARLINK-1199 2.8 19:18:19 10° WNW 19:21:29 89° SSW 19:23:03 27° ESE
MOS 1 Rocket 3.7 19:16:20 10° NNE 19:21:35 54° E 19:26:54 10° S
STARLINK-1191 2.8 19:18:46 10° WNW 19:21:56 89° SSW 19:23:29 27° ESE
Cosmos 2058 Rocket 3.4 19:17:38 10° SSE 19:21:58 47° E 19:26:18 10° NNE
STARLINK-1210 2.8 19:19:14 10° WNW 19:22:23 88° SSW 19:23:55 28° ESE
STARLINK-1221 2.8 19:19:40 10° WNW 19:22:50 88° SSW 19:24:21 28° ESE
STARLINK-1202 3.7 19:18:56 10° W 19:23:06 79° N 19:25:56 20° E
USA 234 3.9 19:17:29 10° ENE 19:23:11 31° SE 19:28:51 10° SSW
STARLINK-1219 2.8 19:20:07 10° WNW 19:23:17 88° SSW 19:24:47 28° ESE
STARLINK-1222 2.8 19:20:35 10° WNW 19:23:44 87° SSW 19:25:13 28° ESE
ATLAS 2AS CENTAUR R/B 3.0 19:16:17 10° NW 19:23:58 74° SW 19:29:59 15° SSE
STARLINK-1211 2.8 19:21:02 10° WNW 19:24:11 87° SSW 19:25:39 29° ESE
STARLINK-1214 2.8 19:21:29 10° WNW 19:24:38 87° SSW 19:26:05 29° ESE
STARLINK-1245 2.8 19:21:58 10° WNW 19:25:06 87° S 19:26:30 30° ESE
Resurs 01 Rocket 1.6 19:21:42 14° SSE 19:25:28 74° ENE 19:29:54 10° NNW
STARLINK-1238 2.8 19:22:22 10° WNW 19:25:32 86° SSW 19:26:57 30° ESE
Cosmos 1892 4.4 19:23:17 10° NNE 19:26:04 18° ENE 19:26:53 17° E
STARLINK-1205 2.8 19:23:18 10° WNW 19:26:27 86° SSW 19:27:49 31° ESE
STARLINK-1204 2.8 19:23:46 10° WNW 19:26:54 85° SSW 19:28:14 31° ESE
Cosmos 2154 Rocket 4.1 19:20:52 10° N 19:27:17 89° W 19:33:37 10° S
STARLINK-1203 3.7 19:23:07 10° W 19:27:20 81° N 19:30:02 22° E
SeaSat 1 4.1 19:24:33 10° NNE 19:29:05 37° NW 19:33:36 10° WSW
Iridium 4 Rocket 4.2 19:26:27 10° NNE 19:29:56 24° ENE 19:30:54 22° E
Meteor 1-16 Rocket 4.3 19:24:39 10° SSW 19:30:04 79° WNW 19:35:42 10° NNE
Cosmos 962 Rocket 4.5 19:24:30 10° N 19:30:40 66° ENE 19:35:47 15° SSE
Cosmos 1190 Rocket 4.2 19:26:43 10° S 19:31:47 47° ESE 19:36:50 10° NE
Nadezhda 1 Rocket 4.0 19:26:35 10° S 19:32:58 82° E 19:39:21 10° NNE
STARLINK-1246 3.6 19:28:54 10° W 19:33:04 81° N 19:35:30 24° E
Cosmos 1140 Rocket 3.8 19:28:17 10° S 19:33:08 42° ESE 19:37:59 10° NE
SL-4 R/B 2.2 19:30:12 10° SW 19:33:17 33° SSE 19:33:43 31° SE
SL-8 Rocket 4.3 19:28:24 10° N 19:34:34 51° ENE 19:38:40 21° SE
Spot 2 Rocket 3.7 19:31:33 21° SE 19:34:46 53° ENE 19:39:45 10° N
STARLINK-1201 2.9 19:31:56 10° WNW 19:35:13 82° SSW 19:36:24 36° ESE
Cosmos 1726 Rocket 3.5 19:30:53 10° S 19:35:18 89° W 19:39:48 10° N
Cosmos 1340 Rocket 2.8 19:33:02 10° S 19:37:02 60° E 19:41:02 10° NNE
STARLINK-1224 3.6 19:33:53 10° W 19:38:02 82° N 19:40:17 26° E
ATLAS 5 CENTAUR R/B 2.2 19:35:07 10° S 19:38:52 32° ESE 19:43:02 10° ENE
Cosmos 1825 4.4 19:40:00 10° NE 19:41:36 12° ENE 19:41:43 12° ENE
SL-24 R/B - RUBIN 2 4.5 19:37:05 10° SSW 19:42:29 48° ESE 19:48:33 10° NE
STARLINK-1225 3.6 19:38:53 10° W 19:43:03 84° N 19:45:05 29° E
Cosmos 2366 rocket 4.3 19:40:11 10° N 19:46:09 49° ENE 19:49:24 26° SE
STARLINK-1230 3.6 19:43:52 10° W 19:48:02 85° N 19:49:52 32° E
Cosmos 614 Rocket 3.9 19:44:51 10° SSW 19:50:04 85° ESE 19:55:20 10° NNE
Cosmos 2369 Rocket 4.5 19:46:33 10° NW 19:50:40 21° W 19:54:44 10° SSW
Cosmos 1300 2.9 19:50:48 38° SE 19:51:47 49° E 19:55:30 10° NNE
Abrixas rocket 2.8 19:49:45 10° WSW 19:52:20 35° SSW 19:52:20 35° SSW
STARLINK-1243 3.5 19:48:49 10° WNW 19:52:59 87° N 19:54:37 36° E
COSMOS 2455 2.8 19:47:06 10° NW 19:53:10 85° SW 19:56:39 27° SSE
CZ-2C R/B 4.3 19:49:26 10° N 19:54:07 60° WNW 19:58:42 10° SSW
IGS 5A 3.7 19:53:17 36° ESE 19:54:35 51° ENE 19:58:39 10° N
Cosmos 921 Rocket 3.0 19:50:56 10° NNW 19:55:07 73° WSW 19:57:12 29° S
Cosmos 1812 Rocket 4.2 19:56:43 33° E 19:56:55 33° E 20:00:49 10° NNE
STARLINK-1236 3.5 19:53:50 10° WNW 19:58:00 89° NE 19:59:25 40° ESE
Cosmos 676 Rocket 4.2 19:56:21 18° S 20:00:03 49° ESE 20:05:08 10° NNE
Cosmos 407 Rocket 3.4 19:56:16 10° SSW 20:01:25 88° ESE 20:06:36 10° NNE
Cosmos 2228 4.2 19:57:40 10° SW 20:01:47 43° WNW 20:05:58 10° N
Cosmos 1908 4.5 20:01:14 10° SW 20:04:55 42° WNW 20:08:40 10° N
STARLINK-1269 3.5 20:03:48 10° WNW 20:07:58 86° SSW 20:09:00 50° ESE
ERS-1 Rocket 3.2 20:07:39 37° ESE 20:09:18 54° ENE 20:14:14 10° N
Cosmos 1818 3.8 20:04:16 10° SW 20:09:42 70° NW 20:15:10 10° NE
ATLAS CENTAUR R/B 3.0 20:06:46 10° NNW 20:10:01 23° NNE 20:11:25 19° NE
ERBS 2.4 20:06:49 10° WNW 20:10:11 65° NNE 20:10:29 60° ENE
STARLINK-1200 3.5 20:08:47 10° WNW 20:12:57 84° SSW 20:13:47 56° ESE
Landsat 7 3.7 20:11:38 39° SSE 20:13:24 81° ENE 20:18:12 10° NNW
SPOT 1/Viking Rocket 3.5 20:14:31 38° SSE 20:16:34 77° ENE 20:21:49 10° NNW
Cosmos 220 Rocket 3.9 20:12:31 10° NNW 20:16:52 78° ENE 20:17:46 54° SE
STARLINK-1192 3.5 20:13:45 10° WNW 20:17:55 81° SSW 20:18:33 62° ESE
Cosmos 1461 4.1 20:13:57 10° NW 20:18:09 39° WSW 20:19:51 28° SSW
MetOp-B 4.4 20:15:08 24° S 20:18:23 66° WSW 20:23:44 10° NNW
Cosmos 1943 4.3 20:13:43 10° WSW 20:19:09 45° NW 20:24:39 10° NNE
STARLINK-1244 3.4 20:18:44 10° WNW 20:22:53 79° SSW 20:23:20 68° SE
Cosmos 1954 Rocket 3.9 20:21:02 21° SSW 20:24:34 72° ESE 20:29:47 10° NNE
SAR-Lupe-2 3.9 20:21:57 10° N 20:25:31 65° WNW 20:26:38 39° SW
SL-08 R/B 4.5 20:20:25 10° N 20:26:31 64° ENE 20:28:38 41° SE
STARLINK-1138 3.4 20:23:42 10° WNW 20:27:51 76° SSW 20:28:06 72° SSE
Meteor 2-10 Rocket 4.3 20:31:29 34° E 20:31:29 34° E 20:36:02 10° NNE
Cosmos 2151 3.5 20:28:21 10° N 20:32:13 44° ENE 20:32:13 44° ENE
CZ-4C R/B 3.5 20:26:22 10° NW 20:32:44 47° NNE 20:37:07 24° E
STARLINK-1143 3.5 20:28:40 10° WNW 20:32:48 73° SSW 20:32:52 73° S
Cosmos 1697 Rocket 3.3 20:28:26 10° NNW 20:33:53 44° NE 20:35:27 36° E
Cosmos 1076 Rocket 3.5 20:30:04 10° NNW 20:34:22 79° W 20:35:03 61° SSW
CZ-2C R/B 3.6 20:31:58 10° N 20:36:54 45° WNW 20:41:48 10° SW
SPOT 5 2.4 20:36:47 69° ESE 20:37:09 74° ENE 20:41:29 10° NNW
STARLINK-1241 3.6 20:33:40 10° WNW 20:37:41 69° SW 20:37:41 69° SW
Iridium 2 4.1 20:42:00 54° WSW 20:42:28 60° W 20:46:16 10° N
STARLINK-1239 3.7 20:38:39 10° WNW 20:42:27 64° SW 20:42:27 64° SW
Cosmos 2058 3.1 20:39:48 10° NNW 20:43:53 64° W 20:44:18 60° SW
SL-16 R/B 4.2 20:43:22 10° NNW 20:47:22 19° NNE 20:50:30 13° ENE
STARLINK-1240 3.9 20:43:38 10° WNW 20:47:15 58° WSW 20:47:15 58° WSW
Cosmos 1763 Rocket 3.3 20:43:32 10° NNW 20:48:47 90° WSW 20:49:35 65° SSE
Cosmos 1814 Rocket 4.3 20:46:53 10° NNW 20:52:10 55° ENE 20:52:51 51° E
STARLINK-1216 4.1 20:48:38 10° WNW 20:52:03 52° WSW 20:52:03 52° WSW
Cosmos 1408 3.3 20:49:18 10° N 20:52:05 49° N 20:52:05 49° N
USA 32 3.9 20:49:39 10° N 20:54:56 83° E 20:55:38 67° SSE
Terra 1.6 20:55:02 76° SE 20:55:20 82° ENE 21:00:08 10° NNW
Cosmos-2242 3.8 20:57:02 41° NE 20:57:02 41° NE 21:00:11 10° NNE
RESURS DK-1 2.7 20:52:41 10° NNW 20:56:27 60° NNE 20:56:27 60° NNE
Cosmos 2322 Rocket 4.3 20:53:21 10° NNW 20:57:18 19° NNE 21:00:21 13° ENE
STARLINK-1237 4.3 20:53:36 10° WNW 20:56:48 46° WSW 20:56:48 46° WSW
Cosmos 1174 4.3 20:54:04 10° NW 20:57:56 60° WSW 20:57:56 60° WSW
Cosmos 2218 Rocket 4.5 20:53:28 10° NNW 20:59:30 55° W 21:02:26 30° SSW
Cosmos 2344 4.4 20:53:06 10° NW 21:01:51 64° NE 21:08:39 28° ESE
Cosmos 1892 3.4 20:58:17 10° NNW 21:01:53 49° W 21:01:53 49° W
Cosmos 1455 3.6 21:03:41 32° NNE 21:03:41 32° NNE 21:05:55 10° NNE
Cosmos 1980 Rocket 2.9 20:56:49 10° NNW 21:02:08 41° NE 21:03:10 38° ENE
Resurs 01 Rocket 4.2 20:59:49 10° SW 21:02:30 16° W 21:05:11 10° NW
Cosmos 540 Rocket 3.4 20:58:58 10° NNW 21:04:09 66° ENE 21:04:25 65° E
USA 234 3.1 21:00:16 10° ENE 21:06:51 79° SSE 21:13:25 10° WSW
Okean 3 Rocket 3.6 21:04:11 10° N 21:08:14 74° N 21:08:14 74° N
Cosmos 1656 3.6 21:04:12 10° NNW 21:09:55 75° WSW 21:10:37 66° S
Iridium 4 Rocket 4.0 21:06:07 10° NNW 21:10:06 39° W 21:10:42 37° WSW
CARTOSAT-1 4.1 21:10:07 51° WSW 21:10:12 51° W 21:14:26 10° NNW
SL-4 R/B 4.4 21:09:09 10° WSW 21:09:22 11° WSW 21:09:22 11° WSW
Cosmos 1850 Rocket 3.9 21:13:06 73° ENE 21:13:06 73° ENE 21:17:58 10° NNE
Cosmos 2360 4.3 21:10:17 10° NNW 21:15:57 61° NE 21:16:31 58° E
Cosmos 1825 3.3 21:13:52 10° NNW 21:16:32 43° NNW 21:16:32 43° NNW
Cosmos 1766 Rocket 3.8 21:16:03 10° NNW 21:20:00 67° NNW 21:20:00 67° NNW
ATLAS 5 CENTAUR R/B 2.4 21:19:01 10° WSW 21:23:16 52° NW 21:28:10 10° NE
Cosmos 841 Rocket 3.4 21:18:54 10° NNW 21:24:13 83° WSW 21:24:14 82° WSW
Cosmos 2278 3.7 21:19:35 10° NNW 21:25:15 66° NE 21:25:34 65° ENE
Cosmos 1570 Rocket 4.2 21:24:27 10° NNW 21:29:46 64° WSW 21:29:51 64° WSW
Cosmos 2082 Rocket 3.7 21:33:29 23° ENE 21:33:29 23° ENE 21:36:01 10° NE
Mayak 0.2 21:28:14 10° NNE 21:30:35 32° NNE 21:30:35 32° NNE
ASTEX 1 3.5 21:39:12 73° NNW 21:39:12 73° NNW 21:43:44 10° N
Cosmos 1356 Rocket 4.4 21:43:19 46° NW 21:43:19 46° NW 21:46:44 10° N
Nadezhda 3 Rocket 4.0 21:43:48 65° SW 21:44:45 79° W 21:51:05 10° N
COSMOS 2406 3.1 21:45:30 80° NE 21:45:30 80° NE 21:50:56 10° NNE
Cosmos 1833 Rocket 3.4 21:47:50 43° ENE 21:47:50 43° ENE 21:51:49 10° NE
Cosmos 1535 Rocket 4.3 21:42:30 10° N 21:48:41 89° W 21:48:58 82° S
ATLAS CENTAUR R/B 3.0 21:45:31 10° NW 21:47:36 29° NW 21:47:36 29° NW
Thor Agena Rocket 3.9 21:58:13 10° NNE 22:02:20 60° NNE 22:02:20 60° NNE
Cosmos 2369 4.2 22:00:48 10° NW 22:05:45 50° W 22:05:45 50° W
Meteor 2-10 Rocket 4.5 22:12:36 40° W 22:13:11 41° WNW 22:18:19 10° N
Cosmos 1697 Rocket 3.5 22:12:33 10° NW 22:17:11 40° W 22:17:11 40° W
Cosmos 2100 Rocket 4.4 22:14:36 10° N 22:20:33 50° ENE 22:20:33 50° ENE
CZ-4C R/B 2.8 22:14:52 10° NW 22:21:52 75° SW 22:22:18 73° SSW
Cosmos 1934 Rocket 4.3 22:16:04 10° NNW 22:22:09 54° W 22:22:23 53° W
Meteor 2-3 Rocket 4.4 22:21:31 10° NNW 22:26:44 45° W 22:26:44 45° W
Cosmos 2221 4.1 22:33:50 34° N 22:33:50 34° N 22:36:24 10° N
SL-16 R/B 2.6 22:27:05 10° NNW 22:32:21 57° NE 22:32:21 57° NE
Cosmos 1605 Rocket 4.1 22:26:43 10° NNW 22:32:34 65° W 22:32:34 65° W
Cosmos 2173 Rocket 4.3 22:27:06 10° N 22:32:48 56° ENE 22:32:48 56° ENE
Terra 4.1 22:33:54 16° W 22:33:54 16° W 22:36:37 10° NW
Cosmos 2360 Rocket 3.3 22:33:44 10° NNW 22:38:55 36° NE 22:39:34 35° ENE
Cosmos 2322 Rocket 2.6 22:36:59 10° NNW 22:42:08 56° NNE 22:42:08 56° NNE
Cosmos 1980 Rocket 3.1 22:40:54 10° NW 22:44:56 38° WNW 22:44:56 38° WNW
Cosmos 2333 Rocket 4.2 22:42:28 10° NNW 22:46:55 23° NE 22:49:56 15° ENE
ALOS 2 4.2 22:51:07 32° NNW 22:51:07 32° NNW 22:53:36 10° NNW
Nimbus 7 Rocket 4.5 22:43:20 10° NNE 22:48:38 73° NNE 22:48:38 73° NNE
USA 234 3.6 22:43:22 10° ENE 22:49:49 63° N 22:56:15 10° W
Mayak 1.2 23:04:44 10° NNW 23:07:09 18° NW 23:07:09 18° NW
ATLAS 5 CENTAUR R/B 4.0 23:05:06 10° WNW 23:08:59 25° N 23:13:22 10° NE
Cosmos 2082 Rocket 2.7 23:15:17 56° NW 23:15:17 56° NW 23:20:32 10° NNE
Cosmos 2061 Rocket 4.0 23:12:18 10° N 23:18:10 76° NNE 23:18:10 76° NNE
Cosmos 968 Rocket 4.2 23:27:05 51° N 23:27:05 51° N 23:31:11 10° NNE
Cosmos 1833 Rocket 3.9 23:29:29 32° WNW 23:30:31 34° NW 23:35:40 10° NNE
SL-16 R/B 3.8 23:29:18 28° E 23:31:15 34° ENE 23:36:46 10° N
Cosmos 2219 Rocket 3.4 23:33:33 10° NNW 23:38:46 37° NE 23:40:10 32° ENE
Cosmos 1607 4.0 23:48:20 68° NW 23:48:20 68° NW 23:54:36 10° NE
COSMOS 2428 3.7 23:45:56 10° NNW 23:51:22 42° NE 23:52:46 36° E
Cosmos 2322 4.0 23:46:31 10° NNW 23:52:05 61° NE 23:52:05 61° NE
MOS 1-B Rocket 4.2 23:46:33 10° N 23:52:29 64° WNW 23:52:40 64° WNW
